Skip Page Navigation
NASA JPL Caltech
NASA Logo - Jet Propulsion Laboratory + View the NASA Portal
+ Near-Earth Object (NEO) Program
Search JPL
JPL Home Earth Solar System Stars & Galaxies Technology
JPL Solar System Dynamics
BODIES ORBITS EPHEMERIDES TOOLS PHYSICAL DATA DISCOVERY FAQ SITE MAP
JPL Small-Body Database Browser
Search: [ help ]  
7213 Conae (1967 KB)
Classification: Main-belt Asteroid          SPK-ID: 2007213
Ephemeris | Orbit Diagram | Orbital Elements | Physical Parameters | Discovery Circumstances ]

[ show orbit diagram ]
Orbital Elements at Epoch 2456400.5 (2013-Apr-18.0) TDB
Reference: MPO247432 (heliocentric ecliptic J2000)
 Element Value Uncertainty (1-sigma)   Units 
e 0.2519194 n/a  
a 2.5490198 n/a AU
q 1.9068723 n/a AU
i 3.03466 n/a deg
node 359.31677 n/a deg
peri 292.59047 n/a deg
M 70.21218 n/a deg
tp 2456110.5866641
(2012-Jul-02.08666410)
n/a JED
period 1486.4771458
4.07
n/a
n/a
d
yr
n 0.24218334 n/a deg/d
Q 3.1911673 n/a AU
  Orbit Determination Parameters
   # obs. used (total)      832  
   first obs. used      1950-??-??  
   last obs. used      2012-12-07  
   # oppositions      19  
   planetary ephem.      DE403  
   condition code      0  
   fit RMS      0.54  
   data source      MPC:mpn  
   producer      MPCLINUX  

Additional Information
 T_jup = 3.394 

Ephemeris | Orbit Diagram | Orbital Elements | Physical Parameters | Discovery Circumstances ]

Physical Parameter Table
Parameter Symbol Value Units Sigma Reference Notes
absolute magnitude H 13.7 mag n/a PDS3 (MPC 28057)  

7213 Conae           Discovered 1967 May 31 by the Félix Aguilar Observatory team at the El Leoncito Station.
CONAE, the Argentinian National Committee for Space Activities, was established in 1991. It is the government body in charge of the administration and control of space projects throughout the country.
NOTE: some special characters may not display properly (any characters within {} are an attempt to place the proper accent above a character)
Reference: 20070926/MPCPages.arcLast Updated: 2007-09-30

Alternate Designations
 1967 KB = 1988 TD1 
Ephemeris | Orbit Diagram | Orbital Elements | Physical Parameters | Discovery Circumstances ]
ABOUT SSD CREDITS/AWARDS PRIVACY/COPYRIGHT GLOSSARY LINKS
FirstGov 2013-Jun-20 05:44 UT
(server date/time)  
NASA Home Page
Site Manager:   Donald K. Yeomans
Webmaster  Alan B. Chamberlin